[Iaude] MPEC W38: 2023 WV [a=1.99,e=0.60,i=2.8,H=26.7]
    mpec at marsden.cfa.harvard.edu 
    mpec at marsden.cfa.harvard.edu
       
    Sun Nov 19 20:58:33 EST 2023
    
    
  
M.P.E.C. 2023-W38                             Issued 2023 November 20, 01:57 UT
     The Minor Planet Electronic Circulars contain information on unusual
         minor planets, routine data on comets and natural satellites,
         and occasional editorial announcements.  They are published
    on behalf of Division F of the International Astronomical Union by the
          Minor Planet Center, Smithsonian Astrophysical Observatory,
                          Cambridge, MA 02138, U.S.A.
			  
             Prepared using the Tamkin Foundation Computer Network
                              MPC at CFA.HARVARD.EDU
            URL https://www.minorplanetcenter.net/    ISSN 1523-6714
                                    2023 WV                                     
Observations:
     K23W00V* C2023 11 19.25602902 31 10.166+09 49 00.33         19.83wXEW038F52
     K23W00V  C2023 11 19.26502202 31 08.639+09 47 08.51         19.75wXEW038F52
     K23W00V  C2023 11 19.27411002 31 07.042+09 45 15.17         19.68wXEW038F52
     K23W00V  C2023 11 19.28310202 31 05.422+09 43 22.31         19.97wXEW038F52
     K23W00V  C2023 11 19.40045302 30 41.299+09 17 38.78         19.70GVEW038F51
     K23W00V  C2023 11 19.40126602 30 41.110+09 17 27.26         19.61GVEW038F51
     K23W00V hC2023 11 19.71528602 30 30.26 +07 55 53.2          19.0 GVEW038L01
     K23W00V hC2023 11 19.71726102 30 29.99 +07 55 21.0          19.0 GVEW038L01
     K23W00V hC2023 11 19.71923602 30 29.69 +07 54 48.4          19.1 GVEW038L01
     K23W00V hC2023 11 19.72184302 30 29.31 +07 54 04.8          19.2 GVEW038L01
     K23W00V hC2023 11 19.72563602 30 28.79 +07 53 02.8          19.1 GVEW038L01
     K23W00V KB2023 11 19.76480 02 30 26.381+07 42 23.29         20.2 VZEW038J57
     K23W00V KB2023 11 19.77153 02 30 25.354+07 40 29.17         19.8 VZEW038J57
     K23W00V KB2023 11 19.77209902 30 21.15 +07 39 57.2          19.6 GXEW038595
     K23W00V KB2023 11 19.77811 02 30 24.298+07 38 36.24         19.7 VZEW038J57
     K23W00V KB2023 11 19.78941502 30 18.03 +07 34 59.4          19.2 GXEW038595
     K23W00V KB2023 11 19.82026202 30 12.182+07 25 39.04         19.2 GXEW038K74
     K23W00V KB2023 11 19.82606502 30 11.083+07 23 55.79         18.9 GXEW038K74
     K23W00V KB2023 11 19.82901702 30 14.36 +07 23 29.2          19.3 GXEW038958
     K23W00V KB2023 11 19.83186702 30 09.919+07 22 11.93         19.0 GXEW038K74
     K23W00V KB2023 11 19.83371 02 30 10.64 +07 22 02.4          18.8 GXEW038G15
     K23W00V KB2023 11 19.83436502 30 13.38 +07 21 54.2          19.5 GXEW038958
     K23W00V KB2023 11 19.83930 02 30 09.42 +07 20 21.9          18.7 GXEW038G15
     K23W00V KB2023 11 19.83976402 30 12.29 +07 20 17.6          19.3 GXEW038958
     K23W00V KC2023 11 19.85093 02 30 12.28 +07 17 33.7          20.8 GVEW038Z45
     K23W00V KC2023 11 19.85488 02 30 11.46 +07 16 22.9          19.8 GVEW038Z45
     K23W00V KC2023 11 19.86013 02 30 10.31 +07 14 47.1          20.0 GVEW038Z45
     K23W00V KC2023 11 19.86579 02 30 09.11 +07 13 04.8          19.1 GVEW038Z45
     K23W00V KC2023 11 19.94061 02 29 50.74 +06 49 19.2          19.2 GXEW038Z41
     K23W00V KC2023 11 19.94068 02 29 50.72 +06 49 17.9          18.6 GXEW038Z41
     K23W00V KC2023 11 19.94907 02 29 48.69 +06 46 35.5          19.0 GXEW038Z41
     K23W00V KC2023 11 19.95193 02 29 48.00 +06 45 39.5          18.9 GXEW038Z41
Observer details:
595 Farra d'Isonzo.  Observer E. Pettarin.  0.40-m f/3.3 reflector + CMO.
958 Observatoire de Dax.  Observers P. Dupouy.  Measurer P. Dupouy.  0.50-m
    f/4.5 Reflector + CMO.
F51 Pan-STARRS 1, Haleakala.  Observers J. Herman, T. Lowe, P. Minguez, A.
    Schultz, I. Smith.  Measurers K. Chambers, T. de Boer, J. Fairlamb, H.
    Gao, M. Huber, C.-C. Lin, E. Magnier, Y. Ramanjooloo, R. Wainscoat, R.
    Weryk.  1.8-m Ritchey-Chretien + CCD.
F52 Pan-STARRS 2, Haleakala.  Observers J. Herman, T. Lowe, P. Minguez, A.
    Schultz, I. Smith.  Measurers K. Chambers, T. de Boer, J. Fairlamb, H.
    Gao, M. Huber, C.-C. Lin, E. Magnier, Y. Ramanjooloo, R. Wainscoat, R.
    Weryk.  1.8-m Ritchey-Chretien + CCD.
G15 Magroforte Observatory, Alessandria.  Observer A. De Pieri.  0.23-m f/6.7
    SC + CMO.
J57 Centro Astronomico Alto Turia, Valencia.  Observer A. Fornas.  Measurers
    A. Fornas, G. Fornas, E. Arce, V. Mas.  0.43-m f/6.8 Reflector 0.4m + CMO.
K74 Muensterschwarzach Observatory, Schwarzach.  Observer C. Gerhard.  0.30-m
    f/3.75 reflector + CMO.
L01 Visnjan Observatory, Tican.  Observer K. Korlevic.  1.0-m f/2.9 reflector
    + CCD.
Z41 Irydeo Observatory, Camarma de Esteruelas.  Observer F. Calvo.  0.28-m
    f/2.2 reflector + CCD.
Z45 Cosmos Observatory, Marbella.  Observer F. Cuevas.  0.35-m f/5.6 Ritchey-
    Chretien + CCD.
Orbital elements:
2023 WV                                                  Earth MOID = 0.0053 AU
Epoch 2023 Sept. 13.0 TT = JDT 2460200.5                Bell                    
M 321.01177              (2000.0)            P               Q                  
n   0.35111434     Peri.  247.32072     -0.50484015     -0.86235337             
a   1.9899263      Node   233.05689     +0.80861593     -0.45682446             
e   0.5988368      Incl.    2.76185     +0.30212034     -0.21830729             
P   2.81           H   26.70          G   0.15           U   8                  
Residuals in seconds of arc
231119 F52  0.1+  0.1-    231119 J57  0.0   0.1+    231119 G15  1.4-  1.7-
231119 F52  0.1+  0.3-    231119 J57  0.1+  0.3+    231119 958  0.0   0.1+
231119 F52  0.0   0.2-    231119 595  0.7-  0.1+    231119 Z45  0.1+  0.4-
231119 F52  0.1+  0.1-    231119 J57  0.0   0.2-    231119 Z45  0.3+  0.1+
231119 F51  0.1+  0.3+    231119 595  0.5-  0.4+    231119 Z45  0.1-  0.6-
231119 F51  0.1-  0.0     231119 K74  0.4-  0.4+    231119 Z45  0.3+  0.1+
231119 L01  0.3-  0.7+    231119 K74  0.1-  0.2+    231119 Z41  0.4-  1.7+
231119 L01  0.2-  1.0+    231119 958  0.5-  0.2-    231119 Z41  0.2-  2.0+
231119 L01  0.5-  0.9+    231119 K74  0.4-  0.2-    231119 Z41  0.0   1.7+
231119 L01  0.7-  0.3+    231119 G15  0.5-  1.3-
231119 L01  0.2-  1.0+    231119 958  0.4+  0.1+
Ephemeris:
2023 WV                  a,e,i = 1.99, 0.60, 3                   q = 0.7983
Date    TT    R. A. (2000) Decl.     Delta      r    Elong.  Phase     V
2023 10 21    02 36 20.5 +20 13 09   0.2878  1.2740   163.3    13.0    25.3
...
2023 11 05    02 36 17.0 +19 35 35   0.1468  1.1382   175.8     3.7    23.2
...
2023 11 13    02 34 35.6 +17 41 24   0.07883 1.0678   171.5     7.9    21.9
...
2023 11 19    02 31 15.8 +10 40 19   0.03005 1.0172   162.4    17.1    20.0
2023 11 20    02 29 42.3 +06 33 42   0.02215 1.0089   158.8    20.8    19.5
2023 11 21    02 26 38.3 -01 57 32   0.01450 1.0008   151.3    28.3    18.8
...
2023 11 27    14 39 40.5 -31 02 28   0.03585 0.9538    22.3   156.9    29.4
...
2023 12 05    14 39 05.0 -24 54 54   0.1016  0.8976    28.5   148.4    29.6
...
2023 12 20    14 50 31.4 -23 19 35   0.2332  0.8216    40.8   128.5    28.7
M. P. C. Staff               (C) Copyright 2023 MPC           M.P.E.C. 2023-W38
    
    
More information about the Iaude
mailing list